Time,TemperatureF,DewpointF,PressureIn,WindDirection,WindDirectionDegrees,WindSpeedMPH,WindSpeedGustMPH,Humidity,HourlyPrecipIn,Conditions,Clouds,dailyrainin,SoftwareType,DateUTC
2013-06-01 00:07:00,73.7,73.7,29.87,NNE,23,0.0,0.0,100,0.00,,,0.00,WSDL version 423,2013-06-01 04:07:00,
2013-06-01 00:17:00,73.3,73.3,29.87,NNE,23,0.0,0.0,100,0.00,,,0.00,WSDL version 423,2013-06-01 04:17:00,
2013-06-01 00:27:00,72.9,72.9,29.87,NNE,23,0.0,0.0,100,0.00,,,0.00,WSDL version 423,2013-06-01 04:27:00,
2013-06-01 00:37:00,72.5,72.5,29.87,NNE,23,0.0,0.0,100,0.00,,,0.00,WSDL version 423,2013-06-01 04:37:00,
2013-06-01 00:47:00,72.1,72.1,29.86,NNE,23,0.0,0.0,100,0.00,,,0.00,WSDL version 423,2013-06-01 04:47:00,
2013-06-01 00:57:00,71.8,71.8,29.86,NNE,23,0.0,0.0,100,0.00,,,0.00,WSDL version 423,2013-06-01 04:57:00,
2013-06-01 01:07:00,71.6,71.6,29.86,NNE,23,0.0,0.0,100,0.00,,,0.00,WSDL version 423,2013-06-01 05:07:00,
2013-06-01 01:17:00,71.3,71.3,29.86,NNE,23,0.0,0.0,100,0.00,,,0.00,WSDL version 423,2013-06-01 05:17:00,
2013-06-01 01:27:00,71.1,71.1,29.85,NNE,23,0.0,0.0,100,0.00,,,0.00,WSDL version 423,2013-06-01 05:27:00,
2013-06-01 01:37:00,70.7,70.7,29.85,NNE,23,0.0,0.0,100,0.00,,,0.00,WSDL version 423,2013-06-01 05:37:00,
2013-06-01 01:47:00,70.5,70.5,29.85,NNE,23,0.0,0.0,100,0.00,,,0.00,WSDL version 423,2013-06-01 05:47:00,
2013-06-01 01:57:00,70.3,70.3,29.85,NNE,23,0.0,0.0,100,0.00,,,0.00,WSDL version 423,2013-06-01 05:57:00,
2013-06-01 02:07:00,70.0,70.0,29.85,NNE,23,0.0,0.0,100,0.00,,,0.00,WSDL version 423,2013-06-01 06:07:00,
2013-06-01 02:17:00,69.7,69.7,29.85,NNE,23,0.0,0.0,100,0.00,,,0.00,WSDL version 423,2013-06-01 06:17:00,
2013-06-01 02:27:00,69.4,69.4,29.84,NNE,23,0.0,0.0,100,0.00,,,0.00,WSDL version 423,2013-06-01 06:27:00,
2013-06-01 02:37:00,69.2,69.2,29.84,NNE,23,0.0,0.0,100,0.00,,,0.00,WSDL version 423,2013-06-01 06:37:00,
2013-06-01 02:47:00,68.9,68.9,29.84,NNE,23,0.0,0.0,100,0.00,,,0.00,WSDL version 423,2013-06-01 06:47:00,
2013-06-01 02:57:00,68.6,68.6,29.84,NNE,23,0.0,0.0,100,0.00,,,0.00,WSDL version 423,2013-06-01 06:57:00,
2013-06-01 03:07:00,68.5,68.5,29.84,NNE,23,0.0,0.0,100,0.00,,,0.00,WSDL version 423,2013-06-01 07:07:00,
2013-06-01 03:17:00,68.4,68.4,29.84,NNE,23,0.0,0.0,100,0.00,,,0.00,WSDL version 423,2013-06-01 07:17:00,
2013-06-01 03:27:00,68.2,68.2,29.84,NNE,23,0.0,0.0,100,0.00,,,0.00,WSDL version 423,2013-06-01 07:27:00,
2013-06-01 03:37:00,68.0,68.0,29.84,NNE,23,0.0,0.0,100,0.00,,,0.00,WSDL version 423,2013-06-01 07:37:00,
2013-06-01 03:47:00,67.9,67.9,29.84,NNE,23,0.0,0.0,100,0.00,,,0.00,WSDL version 423,2013-06-01 07:47:00,
2013-06-01 03:57:00,67.7,67.7,29.84,NNE,23,0.0,0.0,100,0.00,,,0.00,WSDL version 423,2013-06-01 07:57:00,
2013-06-01 04:07:00,67.6,67.6,29.84,NNE,23,0.0,0.0,100,0.00,,,0.00,WSDL version 423,2013-06-01 08:07:00,
2013-06-01 04:17:00,67.5,67.5,29.84,NNE,23,0.0,0.0,100,0.00,,,0.00,WSDL version 423,2013-06-01 08:17:00,
2013-06-01 04:27:00,67.3,67.3,29.84,NNE,23,0.0,0.0,100,0.00,,,0.00,WSDL version 423,2013-06-01 08:27:00,
2013-06-01 04:37:00,67.1,67.1,29.84,NNE,23,0.0,0.0,100,0.00,,,0.00,WSDL version 423,2013-06-01 08:37:00,
2013-06-01 04:47:00,66.9,66.9,29.84,NNE,23,0.0,0.0,100,0.00,,,0.00,WSDL version 423,2013-06-01 08:47:00,
2013-06-01 04:57:00,66.9,66.9,29.84,NNE,23,0.0,0.0,100,0.00,,,0.00,WSDL version 423,2013-06-01 08:57:00,
2013-06-01 05:07:00,66.7,66.7,29.85,NNE,23,0.0,0.0,100,0.00,,,0.00,WSDL version 423,2013-06-01 09:07:00,
2013-06-01 05:17:00,66.6,66.6,29.85,NNE,23,0.0,0.0,100,0.00,,,0.00,WSDL version 423,2013-06-01 09:17:00,
2013-06-01 05:27:00,66.4,66.4,29.85,NNE,23,0.0,0.0,100,0.00,,,0.00,WSDL version 423,2013-06-01 09:27:00,
2013-06-01 05:37:00,66.4,66.4,29.85,NNE,23,0.0,0.0,100,0.00,,,0.00,WSDL version 423,2013-06-01 09:37:00,
2013-06-01 05:47:00,66.4,66.4,29.85,NNE,23,0.0,0.0,100,0.00,,,0.00,WSDL version 423,2013-06-01 09:47:00,
2013-06-01 05:57:00,66.6,66.6,29.85,NNE,23,0.0,0.0,100,0.00,,,0.00,WSDL version 423,2013-06-01 09:57:00,
2013-06-01 06:07:00,66.6,66.6,29.85,NNE,23,0.0,0.0,100,0.00,,,0.00,WSDL version 423,2013-06-01 10:07:00,
2013-06-01 06:17:00,66.6,66.6,29.85,NNE,23,0.0,0.0,100,0.00,,,0.00,WSDL version 423,2013-06-01 10:17:00,
2013-06-01 06:27:00,66.8,66.8,29.85,NNE,23,0.0,0.0,100,0.00,,,0.00,WSDL version 423,2013-06-01 10:27:00,
2013-06-01 06:37:00,67.2,67.2,29.85,NNE,23,0.0,0.0,100,0.00,,,0.00,WSDL version 423,2013-06-01 10:37:00,
2013-06-01 06:47:00,67.6,67.6,29.85,NNE,23,0.0,0.0,100,0.00,,,0.00,WSDL version 423,2013-06-01 10:47:00,
2013-06-01 06:57:00,68.2,68.2,29.85,NNE,23,0.0,0.0,100,0.00,,,0.00,WSDL version 423,2013-06-01 10:57:00,
2013-06-01 07:07:00,68.6,68.6,29.86,NNE,23,0.0,0.0,100,0.00,,,0.00,WSDL version 423,2013-06-01 11:07:00,
2013-06-01 07:17:00,69.2,69.2,29.86,NNE,23,0.0,0.0,100,0.00,,,0.00,WSDL version 423,2013-06-01 11:17:00,
2013-06-01 07:27:00,69.8,69.8,29.86,NNE,23,0.0,0.0,100,0.00,,,0.00,WSDL version 423,2013-06-01 11:27:00,
2013-06-01 07:37:00,70.6,70.6,29.86,NNE,23,0.0,2.7,100,0.00,,,0.00,WSDL version 423,2013-06-01 11:37:00,
2013-06-01 07:47:00,71.3,71.3,29.86,NNE,23,0.0,0.0,100,0.00,,,0.00,WSDL version 423,2013-06-01 11:47:00,
2013-06-01 07:57:00,72.1,72.1,29.86,NNE,23,0.0,0.0,100,0.00,,,0.00,WSDL version 423,2013-06-01 11:57:00,
2013-06-01 08:07:00,73.0,73.0,29.86,NNE,23,0.0,0.0,100,0.00,,,0.00,WSDL version 423,2013-06-01 12:07:00,
2013-06-01 08:17:00,73.8,73.8,29.86,NNE,23,0.0,0.0,100,0.00,,,0.00,WSDL version 423,2013-06-01 12:17:00,
2013-06-01 08:27:00,74.9,74.9,29.86,NNE,23,0.0,0.0,100,0.00,,,0.00,WSDL version 423,2013-06-01 12:27:00,
2013-06-01 08:37:00,76.0,76.0,29.86,NNE,23,0.0,3.1,100,0.00,,,0.00,WSDL version 423,2013-06-01 12:37:00,
2013-06-01 08:47:00,77.3,77.3,29.86,NNE,23,0.0,3.1,100,0.00,,,0.00,WSDL version 423,2013-06-01 12:47:00,
2013-06-01 08:57:00,79.1,79.1,29.86,NNE,23,0.0,4.0,100,0.00,,,0.00,WSDL version 423,2013-06-01 12:57:00,
2013-06-01 09:07:00,80.6,80.6,29.85,NNE,23,0.0,0.0,100,0.00,,,0.00,WSDL version 423,2013-06-01 13:07:00,
2013-06-01 09:17:00,81.9,81.9,29.86,NNE,23,0.0,3.1,100,0.00,,,0.00,WSDL version 423,2013-06-01 13:17:00,
2013-06-01 09:27:00,83.3,83.3,29.85,NNE,23,0.0,3.6,100,0.00,,,0.00,WSDL version 423,2013-06-01 13:27:00,
2013-06-01 09:37:00,84.4,84.4,29.85,NNE,23,0.0,3.6,100,0.00,,,0.00,WSDL version 423,2013-06-01 13:37:00,
2013-06-01 09:47:00,85.4,85.4,29.85,NNE,23,0.0,3.1,100,0.00,,,0.00,WSDL version 423,2013-06-01 13:47:00,
2013-06-01 09:57:00,86.1,86.1,29.85,NNE,23,0.0,3.6,100,0.00,,,0.00,WSDL version 423,2013-06-01 13:57:00,
2013-06-01 10:07:00,86.9,86.9,29.84,NW,315,0.0,3.1,100,0.00,,,0.00,WSDL version 423,2013-06-01 14:07:00,
2013-06-01 10:17:00,87.6,87.6,29.84,East,79,0.0,3.6,100,0.00,,,0.00,WSDL version 423,2013-06-01 14:17:00,
2013-06-01 10:27:00,88.2,88.2,29.84,SSE,158,0.0,4.0,100,0.00,,,0.00,WSDL version 423,2013-06-01 14:27:00,
2013-06-01 10:37:00,88.6,88.6,29.84,NNE,32,0.0,3.6,100,0.00,,,0.00,WSDL version 423,2013-06-01 14:37:00,
2013-06-01 10:47:00,89.6,89.6,29.84,ENE,73,0.0,3.1,100,0.00,,,0.00,WSDL version 423,2013-06-01 14:47:00,
2013-06-01 10:57:00,90.2,90.2,29.84,West,270,1.5,5.8,100,0.00,,,0.00,WSDL version 423,2013-06-01 14:57:00,
2013-06-01 11:07:00,90.5,90.5,29.83,South,169,0.0,4.0,100,0.00,,,0.00,WSDL version 423,2013-06-01 15:07:00,
2013-06-01 11:17:00,90.7,90.7,29.83,WSW,255,0.0,4.9,100,0.00,,,0.00,WSDL version 423,2013-06-01 15:17:00,
2013-06-01 11:27:00,90.8,90.8,29.83,SE,138,0.0,4.0,100,0.00,,,0.00,WSDL version 423,2013-06-01 15:27:00,
2013-06-01 11:37:00,90.9,90.9,29.83,SSW,195,0.2,4.0,100,0.00,,,0.00,WSDL version 423,2013-06-01 15:37:00,
2013-06-01 11:47:00,90.9,90.9,29.83,WSW,255,1.1,4.0,100,0.00,,,0.00,WSDL version 423,2013-06-01 15:47:00,
2013-06-01 11:57:00,91.1,91.1,29.83,ENE,71,0.0,4.9,100,0.00,,,0.00,WSDL version 423,2013-06-01 15:57:00,
2013-06-01 12:07:00,91.3,91.3,29.82,SE,138,0.6,4.0,100,0.00,,,0.00,WSDL version 423,2013-06-01 16:07:00,
2013-06-01 12:17:00,91.4,91.4,29.82,SE,144,0.4,4.0,100,0.00,,,0.00,WSDL version 423,2013-06-01 16:17:00,
2013-06-01 12:27:00,91.7,91.7,29.82,South,191,2.0,4.0,100,0.00,,,0.00,WSDL version 423,2013-06-01 16:27:00,
2013-06-01 12:37:00,91.5,91.5,29.81,NE,45,0.0,4.9,100,0.00,,,0.00,WSDL version 423,2013-06-01 16:37:00,
2013-06-01 12:47:00,91.9,91.9,29.81,ESE,109,0.0,4.9,100,0.00,,,0.00,WSDL version 423,2013-06-01 16:47:00,
2013-06-01 12:57:00,92.1,92.1,29.80,NE,45,2.0,4.0,100,0.00,,,0.00,WSDL version 423,2013-06-01 16:57:00,
2013-06-01 13:07:00,92.3,92.3,29.80,NNW,334,0.0,4.9,100,0.00,,,0.00,WSDL version 423,2013-06-01 17:07:00,
2013-06-01 13:17:00,92.8,92.8,29.79,West,270,0.0,4.0,100,0.00,,,0.00,WSDL version 423,2013-06-01 17:17:00,
2013-06-01 13:27:00,92.8,92.8,29.79,West,278,0.0,4.9,100,0.00,,,0.00,WSDL version 423,2013-06-01 17:27:00,
2013-06-01 13:37:00,92.8,92.8,29.79,SE,127,1.2,5.4,100,0.00,,,0.00,WSDL version 423,2013-06-01 17:37:00,
2013-06-01 13:47:00,93.3,93.3,29.79,ESE,113,0.0,5.8,100,0.00,,,0.00,WSDL version 423,2013-06-01 17:47:00,
2013-06-01 13:57:00,93.8,93.8,29.79,ESE,103,0.0,4.5,100,0.00,,,0.00,WSDL version 423,2013-06-01 17:57:00,
2013-06-01 14:07:00,93.8,93.8,29.79,SE,135,1.0,5.4,100,0.00,,,0.00,WSDL version 423,2013-06-01 18:07:00,
2013-06-01 14:17:00,94.3,94.3,29.79,SE,135,0.0,8.1,100,0.00,,,0.00,WSDL version 423,2013-06-01 18:17:00,
2013-06-01 14:27:00,94.1,94.1,29.79,ESE,113,2.6,4.9,100,0.00,,,0.00,WSDL version 423,2013-06-01 18:27:00,
2013-06-01 14:37:00,94.2,94.2,29.78,NW,309,0.3,3.6,100,0.00,,,0.00,WSDL version 423,2013-06-01 18:37:00,
2013-06-01 14:47:00,95.0,95.0,29.78,NNE,26,0.0,5.4,100,0.00,,,0.00,WSDL version 423,2013-06-01 18:47:00,
2013-06-01 14:57:00,94.8,94.8,29.78,East,90,0.0,4.9,100,0.00,,,0.00,WSDL version 423,2013-06-01 18:57:00,
2013-06-01 15:07:00,95.0,95.0,29.77,South,184,0.0,5.4,100,0.00,,,0.00,WSDL version 423,2013-06-01 19:07:00,
2013-06-01 15:17:00,94.7,94.7,29.77,SSW,211,0.0,4.0,100,0.00,,,0.00,WSDL version 423,2013-06-01 19:17:00,
2013-06-01 15:27:00,94.9,94.9,29.77,SW,236,0.0,4.0,100,0.00,,,0.00,WSDL version 423,2013-06-01 19:27:00,
2013-06-01 15:37:00,94.4,94.4,29.77,SE,135,0.0,5.4,100,0.00,,,0.00,WSDL version 423,2013-06-01 19:37:00,
2013-06-01 15:47:00,94.2,94.2,29.77,NNE,23,0.0,4.9,100,0.00,,,0.00,WSDL version 423,2013-06-01 19:47:00,
2013-06-01 15:57:00,93.3,93.3,29.77,NNE,20,1.7,7.2,100,0.00,,,0.00,WSDL version 423,2013-06-01 19:57:00,
2013-06-01 16:07:00,93.3,93.3,29.77,West,264,1.3,5.4,100,0.00,,,0.00,WSDL version 423,2013-06-01 20:07:00,
2013-06-01 16:17:00,93.1,93.1,29.76,WNW,295,0.0,4.0,100,0.00,,,0.00,WSDL version 423,2013-06-01 20:17:00,
2013-06-01 16:27:00,93.3,93.3,29.76,SSW,195,0.0,3.1,100,0.00,,,0.00,WSDL version 423,2013-06-01 20:27:00,
2013-06-01 16:37:00,92.8,92.8,29.76,NE,35,0.0,5.8,100,0.00,,,0.00,WSDL version 423,2013-06-01 20:37:00,
2013-06-01 16:47:00,92.4,92.4,29.76,North,9,1.6,4.0,100,0.00,,,0.00,WSDL version 423,2013-06-01 20:47:00,
2013-06-01 16:57:00,92.3,92.3,29.76,NNE,23,0.0,4.0,100,0.00,,,0.00,WSDL version 423,2013-06-01 20:57:00,
2013-06-01 17:07:00,92.1,92.1,29.75,ESE,113,0.0,3.6,100,0.00,,,0.00,WSDL version 423,2013-06-01 21:07:00,
2013-06-01 17:17:00,91.5,91.5,29.75,SSW,203,2.9,4.0,100,0.00,,,0.00,WSDL version 423,2013-06-01 21:17:00,
2013-06-01 17:27:00,90.9,90.9,29.75,SW,225,0.0,3.1,100,0.00,,,0.00,WSDL version 423,2013-06-01 21:27:00,
2013-06-01 17:37:00,90.9,90.9,29.75,SSW,193,0.0,3.6,100,0.00,,,0.00,WSDL version 423,2013-06-01 21:37:00,
2013-06-01 17:47:00,93.4,93.4,29.75,West,264,0.0,3.6,100,0.00,,,0.00,WSDL version 423,2013-06-01 21:47:00,
2013-06-01 17:57:00,90.2,90.2,29.75,WSW,253,0.0,2.7,100,0.00,,,0.00,WSDL version 423,2013-06-01 21:57:00,
2013-06-01 18:07:00,88.8,88.8,29.75,ENE,68,0.0,5.8,100,0.00,,,0.00,WSDL version 423,2013-06-01 22:07:00,
2013-06-01 18:17:00,88.0,88.0,29.75,West,270,0.0,6.3,100,0.00,,,0.00,WSDL version 423,2013-06-01 22:17:00,
2013-06-01 18:27:00,87.2,87.2,29.75,North,360,0.0,4.0,100,0.00,,,0.00,WSDL version 423,2013-06-01 22:27:00,
2013-06-01 18:37:00,86.4,86.4,29.75,North,360,0.0,4.9,100,0.00,,,0.00,WSDL version 423,2013-06-01 22:37:00,
2013-06-01 18:47:00,85.0,85.0,29.76,North,360,0.0,3.1,100,0.00,,,0.00,WSDL version 423,2013-06-01 22:47:00,
2013-06-01 18:57:00,84.0,84.0,29.76,North,360,0.0,2.7,100,0.00,,,0.00,WSDL version 423,2013-06-01 22:57:00,
2013-06-01 19:07:00,83.3,83.3,29.76,North,360,0.0,0.0,100,0.00,,,0.00,WSDL version 423,2013-06-01 23:07:00,
2013-06-01 19:17:00,82.6,82.6,29.76,North,360,0.0,2.7,100,0.00,,,0.00,WSDL version 423,2013-06-01 23:17:00,
2013-06-01 19:27:00,82.2,82.2,29.76,North,360,0.0,0.0,100,0.00,,,0.00,WSDL version 423,2013-06-01 23:27:00,
2013-06-01 19:37:00,82.1,82.1,29.77,North,360,0.0,4.0,100,0.00,,,0.00,WSDL version 423,2013-06-01 23:37:00,
2013-06-01 19:47:00,81.7,81.7,29.77,NNE,23,0.0,3.6,100,0.00,,,0.00,WSDL version 423,2013-06-01 23:47:00,
2013-06-01 19:57:00,81.5,81.5,29.77,NE,42,0.0,4.9,100,0.00,,,0.00,WSDL version 423,2013-06-01 23:57:00,
2013-06-01 20:07:00,81.0,81.0,29.77,NE,45,0.0,0.0,100,0.00,,,0.00,WSDL version 423,2013-06-02 00:07:00,
2013-06-01 20:17:00,80.4,80.4,29.76,NE,45,0.0,2.7,100,0.00,,,0.00,WSDL version 423,2013-06-02 00:17:00,
2013-06-01 20:27:00,79.9,79.9,29.76,North,5,0.0,3.6,100,0.00,,,0.00,WSDL version 423,2013-06-02 00:27:00,
2013-06-01 20:37:00,79.4,79.4,29.77,South,180,0.0,3.1,100,0.00,,,0.00,WSDL version 423,2013-06-02 00:37:00,
2013-06-01 20:47:00,79.2,79.2,29.77,NE,45,0.0,3.1,100,0.00,,,0.00,WSDL version 423,2013-06-02 00:47:00,
2013-06-01 20:57:00,78.8,78.8,29.77,NE,45,0.0,0.0,100,0.00,,,0.00,WSDL version 423,2013-06-02 00:57:00,
2013-06-01 21:07:00,78.4,78.4,29.78,NE,45,0.0,0.0,100,0.00,,,0.00,WSDL version 423,2013-06-02 01:07:00,
2013-06-01 21:17:00,78.2,78.2,29.78,ENE,68,0.0,2.2,100,0.00,,,0.00,WSDL version 423,2013-06-02 01:17:00,
2013-06-01 21:27:00,77.8,77.8,29.78,East,90,0.0,2.2,100,0.00,,,0.00,WSDL version 423,2013-06-02 01:27:00,
2013-06-01 21:37:00,77.7,77.7,29.78,East,90,0.0,0.0,100,0.00,,,0.00,WSDL version 423,2013-06-02 01:37:00,
2013-06-01 21:47:00,77.4,77.4,29.78,ESE,113,0.0,0.0,100,0.00,,,0.00,WSDL version 423,2013-06-02 01:47:00,
2013-06-01 21:57:00,77.1,77.1,29.78,ESE,113,0.0,0.0,100,0.00,,,0.00,WSDL version 423,2013-06-02 01:57:00,
2013-06-01 22:07:00,76.8,76.8,29.78,NNE,28,0.0,3.1,100,0.00,,,0.00,WSDL version 423,2013-06-02 02:07:00,
2013-06-01 22:17:00,76.6,76.6,29.78,West,270,0.0,2.2,100,0.00,,,0.00,WSDL version 423,2013-06-02 02:17:00,
2013-06-01 22:27:00,76.3,76.3,29.78,SSE,158,0.0,3.6,100,0.00,,,0.00,WSDL version 423,2013-06-02 02:27:00,
2013-06-01 22:37:00,76.0,76.0,29.78,ENE,68,0.0,0.0,100,0.00,,,0.00,WSDL version 423,2013-06-02 02:37:00,
2013-06-01 22:47:00,75.6,75.6,29.78,ENE,68,0.0,0.0,100,0.00,,,0.00,WSDL version 423,2013-06-02 02:47:00,
2013-06-01 22:57:00,75.4,75.4,29.78,NE,50,0.0,2.2,100,0.00,,,0.00,WSDL version 423,2013-06-02 02:57:00,
2013-06-01 23:07:00,75.1,75.1,29.78,NE,45,0.0,0.0,100,0.00,,,0.00,WSDL version 423,2013-06-02 03:07:00,
2013-06-01 23:17:00,74.8,74.8,29.78,NE,48,0.0,2.2,100,0.00,,,0.00,WSDL version 423,2013-06-02 03:17:00,
2013-06-01 23:27:00,74.5,74.5,29.78,NE,45,0.0,0.0,100,0.00,,,0.00,WSDL version 423,2013-06-02 03:27:00,
2013-06-01 23:37:00,74.5,74.5,29.77,NNE,25,0.0,0.0,100,0.00,,,0.00,WSDL version 423,2013-06-02 03:37:00,
2013-06-01 23:47:00,74.2,74.2,29.77,NE,45,0.0,3.6,100,0.00,,,0.00,WSDL version 423,2013-06-02 03:47:00,
2013-06-01 23:57:00,73.9,73.9,29.77,NNE,23,0.0,2.7,100,0.00,,,0.00,WSDL version 423,2013-06-02 03:57:00,